Location: ?????????
(38.5999°N, 22.7695°E)
Time: 09:41:33
(UTC+00:00)

Cosmos 1378 Rocket - Pass Details

Date: 23 May 2024
Orbit: 599 x 622 km, 82.5° (Epoch: 23 June)

Event Time Altitude Azimuth Distance (km) Brightness Sun altitude
Exits shadow 01:33:13 28° 202° (SSW) 1,128 4.4 -16.3°
Maximum altitude 01:35:22 67° 278° (W) 650 3.5 -16.0°
Drops below altitude 10° 01:39:38 10° 2° (N) 1,948 6.8 -15.4°
Sets 01:41:53 0° 5° (N) 2,857 7.7 -15.0°
